Time,TemperatureF,DewpointF,PressureIn,WindDirection,WindDirectionDegrees,WindSpeedMPH,WindSpeedGustMPH,Humidity,HourlyPrecipIn,Conditions,Clouds,dailyrainin,SoftwareType,DateUTC
2013-01-09 00:05:00,47.7,44.0,30.27,NE,36,0.0,-999.0,87,-99.99,,,0.00,weatherlink.com 1.10,2013-01-09 06:05:00,
2013-01-09 00:20:00,47.8,44.0,30.26,North,11,0.0,-999.0,87,-99.99,,,0.00,weatherlink.com 1.10,2013-01-09 06:20:00,
2013-01-09 00:35:00,47.9,45.0,30.27,NNE,12,2.0,-999.0,88,-99.99,,,0.00,weatherlink.com 1.10,2013-01-09 06:35:00,
2013-01-09 00:50:00,48.4,45.0,30.28,NNE,14,2.0,-999.0,87,-99.99,,,0.00,weatherlink.com 1.10,2013-01-09 06:50:00,
2013-01-09 01:05:00,48.2,45.0,30.27,NNE,14,0.0,-999.0,88,-99.99,,,0.00,weatherlink.com 1.10,2013-01-09 07:05:00,
2013-01-09 01:20:00,48.1,45.0,30.27,NNE,14,0.0,-999.0,88,-99.99,,,0.00,weatherlink.com 1.10,2013-01-09 07:20:00,
2013-01-09 01:35:00,48.4,45.0,30.28,NNE,14,0.0,-999.0,88,-99.99,,,0.00,weatherlink.com 1.10,2013-01-09 07:35:00,
2013-01-09 01:50:00,48.3,45.0,30.29,NNE,14,0.0,-999.0,88,-99.99,,,0.00,weatherlink.com 1.10,2013-01-09 07:50:00,
2013-01-09 02:05:00,48.4,45.0,30.28,NNE,14,0.0,-999.0,88,-99.99,,,0.00,weatherlink.com 1.10,2013-01-09 08:05:00,
2013-01-09 02:20:00,49.4,45.0,30.28,NNE,14,0.0,-999.0,86,-99.99,,,0.00,weatherlink.com 1.10,2013-01-09 08:20:00,
2013-01-09 02:35:00,50.1,46.0,30.28,NNE,14,0.0,-999.0,84,-99.99,,,0.00,weatherlink.com 1.10,2013-01-09 08:35:00,
2013-01-09 02:50:00,50.5,46.0,30.28,NNE,14,0.0,-999.0,83,-99.99,,,0.00,weatherlink.com 1.10,2013-01-09 08:50:00,
2013-01-09 03:05:00,50.5,46.0,30.29,NNE,14,3.0,-999.0,83,-99.99,,,0.00,weatherlink.com 1.10,2013-01-09 09:05:00,
2013-01-09 03:20:00,50.5,46.0,30.28,NNE,14,0.0,-999.0,83,-99.99,,,0.00,weatherlink.com 1.10,2013-01-09 09:20:00,
2013-01-09 03:35:00,50.5,45.0,30.28,NNE,19,3.0,-999.0,82,-99.99,,,0.00,weatherlink.com 1.10,2013-01-09 09:35:00,
2013-01-09 03:50:00,50.7,45.0,30.29,NNE,17,0.0,-999.0,81,-99.99,,,0.00,weatherlink.com 1.10,2013-01-09 09:50:00,
2013-01-09 04:05:00,50.8,45.0,30.29,North,9,7.0,-999.0,81,-99.99,,,0.00,weatherlink.com 1.10,2013-01-09 10:05:00,
2013-01-09 04:20:00,51.0,45.0,30.29,North,355,0.0,-999.0,81,-99.99,,,0.00,weatherlink.com 1.10,2013-01-09 10:20:00,
2013-01-09 04:35:00,50.9,46.0,30.29,North,355,0.0,-999.0,82,-99.99,,,0.00,weatherlink.com 1.10,2013-01-09 10:35:00,
2013-01-09 04:50:00,50.4,46.0,30.30,North,355,0.0,-999.0,85,-99.99,,,0.01,weatherlink.com 1.10,2013-01-09 10:50:00,
2013-01-09 05:05:00,49.4,46.0,30.29,North,355,0.0,-999.0,89,-99.99,,,0.02,weatherlink.com 1.10,2013-01-09 11:05:00,
2013-01-09 05:20:00,49.1,46.0,30.29,North,355,0.0,-999.0,89,-99.99,,,0.03,weatherlink.com 1.10,2013-01-09 11:20:00,
2013-01-09 05:35:00,48.8,46.0,30.28,North,355,3.0,-999.0,91,-99.99,,,0.03,weatherlink.com 1.10,2013-01-09 11:35:00,
2013-01-09 05:50:00,48.4,46.0,30.29,North,355,0.0,-999.0,92,-99.99,,,0.03,weatherlink.com 1.10,2013-01-09 11:50:00,
2013-01-09 06:05:00,48.4,46.0,30.30,North,355,0.0,-999.0,92,-99.99,,,0.03,weatherlink.com 1.10,2013-01-09 12:05:00,
2013-01-09 06:20:00,48.2,46.0,30.30,North,355,0.0,-999.0,92,-99.99,,,0.04,weatherlink.com 1.10,2013-01-09 12:20:00,
2013-01-09 06:35:00,48.0,46.0,30.30,North,355,0.0,-999.0,93,-99.99,,,0.04,weatherlink.com 1.10,2013-01-09 12:35:00,
2013-01-09 06:50:00,48.0,46.0,30.32,North,355,0.0,-999.0,94,-99.99,,,0.04,weatherlink.com 1.10,2013-01-09 12:50:00,
2013-01-09 07:05:00,48.0,46.0,30.32,North,355,0.0,-999.0,94,-99.99,,,0.04,weatherlink.com 1.10,2013-01-09 13:05:00,
2013-01-09 07:20:00,48.2,47.0,30.33,North,355,0.0,-999.0,94,-99.99,,,0.05,weatherlink.com 1.10,2013-01-09 13:20:00,
2013-01-09 07:35:00,48.4,47.0,30.34,North,355,0.0,-999.0,94,-99.99,,,0.05,weatherlink.com 1.10,2013-01-09 13:35:00,
2013-01-09 07:50:00,48.6,47.0,30.34,North,355,4.0,-999.0,95,-99.99,,,0.05,weatherlink.com 1.10,2013-01-09 13:50:00,
2013-01-09 08:05:00,48.4,47.0,30.34,NE,38,4.0,-999.0,95,-99.99,,,0.05,weatherlink.com 1.10,2013-01-09 14:05:00,
2013-01-09 08:20:00,48.7,47.0,30.35,North,5,0.0,-999.0,95,-99.99,,,0.06,weatherlink.com 1.10,2013-01-09 14:20:00,
2013-01-09 08:35:00,49.1,48.0,30.35,NNE,16,0.0,-999.0,95,-99.99,,,0.06,weatherlink.com 1.10,2013-01-09 14:35:00,
2013-01-09 08:50:00,49.1,48.0,30.35,North,5,4.0,-999.0,95,-99.99,,,0.07,weatherlink.com 1.10,2013-01-09 14:50:00,
2013-01-09 09:05:00,49.2,48.0,30.36,North,5,0.0,-999.0,95,-99.99,,,0.07,weatherlink.com 1.10,2013-01-09 15:05:00,
2013-01-09 09:20:00,49.1,48.0,30.36,North,9,0.0,-999.0,95,-99.99,,,0.08,weatherlink.com 1.10,2013-01-09 15:20:00,
2013-01-09 09:35:00,49.4,48.0,30.36,NNE,22,1.0,-999.0,96,-99.99,,,0.09,weatherlink.com 1.10,2013-01-09 15:35:00,
2013-01-09 09:50:00,49.4,48.0,30.36,NNW,338,2.0,-999.0,95,-99.99,,,0.10,weatherlink.com 1.10,2013-01-09 15:50:00,
2013-01-09 10:05:00,49.6,49.0,30.35,North,5,0.0,-999.0,96,-99.99,,,0.10,weatherlink.com 1.10,2013-01-09 16:05:00,
2013-01-09 10:20:00,49.9,49.0,30.36,North,355,4.0,-999.0,96,-99.99,,,0.10,weatherlink.com 1.10,2013-01-09 16:20:00,
2013-01-09 10:35:00,49.7,49.0,30.35,North,10,4.0,-999.0,96,-99.99,,,0.10,weatherlink.com 1.10,2013-01-09 16:35:00,
2013-01-09 10:50:00,49.8,49.0,30.33,North,355,7.0,-999.0,96,-99.99,,,0.10,weatherlink.com 1.10,2013-01-09 16:50:00,
2013-01-09 11:05:00,50.3,49.0,30.33,NNE,15,6.0,-999.0,96,-99.99,,,0.11,weatherlink.com 1.10,2013-01-09 17:05:00,
2013-01-09 11:20:00,50.2,49.0,30.32,North,5,3.0,-999.0,96,-99.99,,,0.11,weatherlink.com 1.10,2013-01-09 17:20:00,
2013-01-09 11:35:00,50.8,50.0,30.32,NNE,23,4.0,-999.0,96,-99.99,,,0.11,weatherlink.com 1.10,2013-01-09 17:35:00,
2013-01-09 11:50:00,51.3,50.0,30.31,NNE,14,2.0,-999.0,96,-99.99,,,0.11,weatherlink.com 1.10,2013-01-09 17:50:00,
2013-01-09 12:05:00,51.6,51.0,30.31,North,11,1.0,-999.0,96,-99.99,,,0.11,weatherlink.com 1.10,2013-01-09 18:05:00,
2013-01-09 12:20:00,51.8,51.0,30.30,NNE,31,0.0,-999.0,96,-99.99,,,0.11,weatherlink.com 1.10,2013-01-09 18:20:00,
2013-01-09 12:35:00,52.2,51.0,30.30,NNE,21,0.0,-999.0,96,-99.99,,,0.11,weatherlink.com 1.10,2013-01-09 18:35:00,
2013-01-09 12:50:00,51.8,51.0,30.30,North,349,0.0,-999.0,95,-99.99,,,0.11,weatherlink.com 1.10,2013-01-09 18:50:00,
2013-01-09 13:05:00,52.1,51.0,30.30,NNE,28,6.0,-999.0,96,-99.99,,,0.11,weatherlink.com 1.10,2013-01-09 19:05:00,
2013-01-09 13:20:00,52.7,52.0,30.29,NNE,28,0.0,-999.0,96,-99.99,,,0.11,weatherlink.com 1.10,2013-01-09 19:20:00,
2013-01-09 13:35:00,52.6,52.0,30.29,North,360,5.0,-999.0,96,-99.99,,,0.11,weatherlink.com 1.10,2013-01-09 19:35:00,
2013-01-09 13:50:00,52.6,52.0,30.29,NNE,26,4.0,-999.0,96,-99.99,,,0.11,weatherlink.com 1.10,2013-01-09 19:50:00,
2013-01-09 14:05:00,52.8,52.0,30.29,NNE,13,3.0,-999.0,96,-99.99,,,0.11,weatherlink.com 1.10,2013-01-09 20:05:00,
2013-01-09 14:20:00,52.6,52.0,30.29,North,9,2.0,-999.0,96,-99.99,,,0.11,weatherlink.com 1.10,2013-01-09 20:20:00,
2013-01-09 14:35:00,52.5,51.0,30.30,NNE,17,0.0,-999.0,96,-99.99,,,0.12,weatherlink.com 1.10,2013-01-09 20:35:00,
2013-01-09 14:50:00,52.6,52.0,30.30,NNE,17,0.0,-999.0,96,-99.99,,,0.14,weatherlink.com 1.10,2013-01-09 20:50:00,
2013-01-09 15:05:00,52.7,52.0,30.30,NNE,13,2.0,-999.0,96,-99.99,,,0.16,weatherlink.com 1.10,2013-01-09 21:05:00,
2013-01-09 15:20:00,52.8,52.0,30.30,NNE,13,2.0,-999.0,96,-99.99,,,0.17,weatherlink.com 1.10,2013-01-09 21:20:00,
2013-01-09 15:35:00,53.0,52.0,30.30,NNE,18,2.0,-999.0,96,-99.99,,,0.17,weatherlink.com 1.10,2013-01-09 21:35:00,
2013-01-09 15:50:00,52.7,52.0,30.30,North,10,5.0,-999.0,96,-99.99,,,0.17,weatherlink.com 1.10,2013-01-09 21:50:00,
2013-01-09 16:05:00,52.5,52.0,30.30,NNE,15,2.0,-999.0,97,-99.99,,,0.17,weatherlink.com 1.10,2013-01-09 22:05:00,
2013-01-09 16:20:00,52.3,51.0,30.30,North,355,3.0,-999.0,96,-99.99,,,0.17,weatherlink.com 1.10,2013-01-09 22:20:00,
2013-01-09 16:35:00,52.6,52.0,30.30,North,5,1.0,-999.0,97,-99.99,,,0.17,weatherlink.com 1.10,2013-01-09 22:35:00,
2013-01-09 16:50:00,52.1,51.0,30.30,NNE,24,0.0,-999.0,97,-99.99,,,0.17,weatherlink.com 1.10,2013-01-09 22:50:00,
2013-01-09 17:05:00,51.9,51.0,30.30,WNW,288,0.0,-999.0,97,-99.99,,,0.18,weatherlink.com 1.10,2013-01-09 23:05:00,
2013-01-09 17:20:00,51.8,51.0,30.30,WNW,288,0.0,-999.0,97,-99.99,,,0.19,weatherlink.com 1.10,2013-01-09 23:20:00,
2013-01-09 17:35:00,51.9,51.0,30.31,WNW,288,0.0,-999.0,97,-99.99,,,0.19,weatherlink.com 1.10,2013-01-09 23:35:00,
2013-01-09 17:50:00,52.8,52.0,30.31,NNE,14,0.0,-999.0,97,-99.99,,,0.20,weatherlink.com 1.10,2013-01-09 23:50:00,
2013-01-09 18:05:00,51.4,51.0,30.31,NW,323,5.0,-999.0,97,-99.99,,,0.20,weatherlink.com 1.10,2013-01-10 00:05:00,
2013-01-09 18:20:00,51.3,51.0,30.31,NNE,26,5.0,-999.0,97,-99.99,,,0.20,weatherlink.com 1.10,2013-01-10 00:20:00,
2013-01-09 18:35:00,51.3,51.0,30.32,North,5,0.0,-999.0,97,-99.99,,,0.20,weatherlink.com 1.10,2013-01-10 00:35:00,
2013-01-09 18:50:00,51.5,51.0,30.32,NNE,13,0.0,-999.0,97,-99.99,,,0.20,weatherlink.com 1.10,2013-01-10 00:50:00,
2013-01-09 19:05:00,51.7,51.0,30.32,NNE,13,0.0,-999.0,97,-99.99,,,0.20,weatherlink.com 1.10,2013-01-10 01:05:00,
2013-01-09 19:20:00,52.0,51.0,30.32,NNE,15,0.0,-999.0,97,-99.99,,,0.20,weatherlink.com 1.10,2013-01-10 01:20:00,
2013-01-09 19:35:00,52.2,51.0,30.32,NNE,12,0.0,-999.0,97,-99.99,,,0.20,weatherlink.com 1.10,2013-01-10 01:35:00,
2013-01-09 19:50:00,52.0,51.0,30.32,NNE,12,0.0,-999.0,97,-99.99,,,0.20,weatherlink.com 1.10,2013-01-10 01:50:00,
2013-01-09 20:05:00,51.7,51.0,30.33,NNE,12,0.0,-999.0,97,-99.99,,,0.20,weatherlink.com 1.10,2013-01-10 02:05:00,
2013-01-09 20:20:00,51.8,51.0,30.33,NNE,12,0.0,-999.0,97,-99.99,,,0.20,weatherlink.com 1.10,2013-01-10 02:20:00,
2013-01-09 20:35:00,52.0,51.0,30.33,NNE,12,0.0,-999.0,97,-99.99,,,0.20,weatherlink.com 1.10,2013-01-10 02:35:00,
2013-01-09 20:50:00,52.7,52.0,30.32,NNE,22,0.0,-999.0,98,-99.99,,,0.20,weatherlink.com 1.10,2013-01-10 02:50:00,
2013-01-09 21:05:00,52.3,52.0,30.33,North,5,0.0,-999.0,97,-99.99,,,0.20,weatherlink.com 1.10,2013-01-10 03:05:00,
2013-01-09 21:20:00,51.8,51.0,30.33,NNE,14,2.0,-999.0,97,-99.99,,,0.20,weatherlink.com 1.10,2013-01-10 03:20:00,
2013-01-09 21:35:00,52.2,51.0,30.33,North,360,0.0,-999.0,97,-99.99,,,0.20,weatherlink.com 1.10,2013-01-10 03:35:00,
2013-01-09 21:50:00,52.2,51.0,30.32,North,9,0.0,-999.0,97,-99.99,,,0.20,weatherlink.com 1.10,2013-01-10 03:50:00,
2013-01-09 22:05:00,51.6,51.0,30.33,North,9,0.0,-999.0,97,-99.99,,,0.20,weatherlink.com 1.10,2013-01-10 04:05:00,
2013-01-09 22:20:00,50.2,49.0,30.33,North,9,0.0,-999.0,97,-99.99,,,0.20,weatherlink.com 1.10,2013-01-10 04:20:00,
2013-01-09 22:35:00,50.5,50.0,30.32,North,9,0.0,-999.0,97,-99.99,,,0.20,weatherlink.com 1.10,2013-01-10 04:35:00,
2013-01-09 22:50:00,51.2,50.0,30.33,North,5,4.0,-999.0,97,-99.99,,,0.20,weatherlink.com 1.10,2013-01-10 04:50:00,
2013-01-09 23:05:00,51.0,50.0,30.33,North,5,0.0,-999.0,97,-99.99,,,0.20,weatherlink.com 1.10,2013-01-10 05:05:00,
2013-01-09 23:20:00,51.0,50.0,30.33,North,5,0.0,-999.0,97,-99.99,,,0.20,weatherlink.com 1.10,2013-01-10 05:20:00,
2013-01-09 23:46:00,50.6,50.0,30.34,North,5,0.0,-999.0,97,-99.99,,,0.20,weatherlink.com 1.10,2013-01-10 05:46:00,